Torna al catalogo

STARLINK-3238

AttivoComunicazioniVLEO
NORAD 49734·PAYLOAD·🇺🇸 United States

Lanciato Dec 2, 2021 da Cape Canaveral Space Force Station

Loading…

Prossimi Passaggi (prossime 24 ore)

TLE

AggiornatoSource: CelesTrak SupGP

Epoca: Sep 14, 2026, 13:30 UTC

1 49734C 21115L   26257.56298611 -.00021118  00000+0 -67910-3 0  2574
2 49734  53.1588   7.5642 0001140  85.6868  32.9153 15.31712641    15

Traccia STARLINK-3238 in tempo reale con AllMySat

Download on the App Store